TimeMDT,TemperatureF,Dew PointF,Humidity,Sea Level PressureIn,VisibilityMPH,Wind Direction,Wind SpeedMPH,Gust SpeedMPH,PrecipitationIn,Events,Conditions,WindDirDegrees,DateUTC
12:53 AM,33.1,30.0,89,30.43,10.0,NNE,4.6,-,N/A,,Clear,30,2012-10-05 06:53:00
2:53 AM,30.9,27.0,85,30.43,10.0,South,3.5,-,N/A,,Partly Cloudy,170,2012-10-05 08:53:00
3:53 AM,32.0,28.9,88,30.43,10.0,Calm,Calm,-,N/A,,Overcast,0,2012-10-05 09:53:00
4:53 AM,30.9,28.9,92,30.43,10.0,Calm,Calm,-,N/A,,Overcast,0,2012-10-05 10:53:00
5:53 AM,30.9,27.0,85,30.43,10.0,SSE,3.5,-,N/A,,Mostly Cloudy,150,2012-10-05 11:53:00
6:53 AM,30.9,27.0,85,30.43,10.0,South,3.5,-,N/A,,Mostly Cloudy,180,2012-10-05 12:53:00
7:53 AM,32.0,28.9,88,30.45,10.0,NNE,4.6,-,N/A,,Overcast,30,2012-10-05 13:53:00
8:53 AM,34.0,30.9,89,30.45,10.0,ENE,10.4,-,N/A,,Overcast,60,2012-10-05 14:53:00
9:53 AM,39.0,32.0,76,30.45,10.0,ENE,10.4,-,N/A,,Scattered Clouds,60,2012-10-05 15:53:00
11:53 AM,43.0,32.0,65,30.45,10.0,NNE,8.1,-,N/A,,Mostly Cloudy,30,2012-10-05 17:53:00
12:53 PM,41.0,30.0,65,30.45,10.0,Variable,5.8,-,N/A,,Overcast,0,2012-10-05 18:53:00
1:53 PM,43.0,30.9,62,30.43,10.0,ENE,11.5,-,N/A,,Overcast,60,2012-10-05 19:53:00
2:21 PM,41.0,30.2,65,30.36,10.0,NNE,13.8,-,N/A,,Mostly Cloudy,30,2012-10-05 20:21:00
2:33 PM,41.0,28.4,61,30.36,10.0,NE,12.7,-,N/A,,Mostly Cloudy,40,2012-10-05 20:33:00
2:49 PM,41.0,28.4,61,30.36,10.0,NE,11.5,-,N/A,,Overcast,40,2012-10-05 20:49:00
2:53 PM,41.0,28.0,60,30.43,10.0,NE,12.7,-,N/A,,Overcast,40,2012-10-05 20:53:00
3:53 PM,41.0,28.9,62,30.43,10.0,NE,5.8,-,N/A,,Overcast,50,2012-10-05 21:53:00
4:53 PM,42.1,28.0,58,30.44,10.0,NNE,6.9,-,N/A,,Overcast,30,2012-10-05 22:53:00
5:53 PM,42.1,24.1,49,30.45,10.0,North,8.1,-,N/A,,Overcast,350,2012-10-05 23:53:00
6:53 PM,39.0,24.1,55,30.47,10.0,NNE,9.2,-,N/A,,Overcast,20,2012-10-06 00:53:00
7:53 PM,37.0,24.1,59,30.48,10.0,North,5.8,-,N/A,,Mostly Cloudy,360,2012-10-06 01:53:00
8:53 PM,32.0,23.0,69,30.50,10.0,NNE,6.9,-,N/A,,Clear,20,2012-10-06 02:53:00
9:53 PM,30.9,21.9,69,30.50,10.0,NNW,4.6,-,N/A,,Clear,340,2012-10-06 03:53:00
10:53 PM,28.0,24.1,85,30.50,10.0,WNW,6.9,-,N/A,,Clear,290,2012-10-06 04:53:00
11:53 PM,28.0,24.1,85,30.50,10.0,WNW,8.1,-,N/A,,Clear,300,2012-10-06 05:53:00